User: anonymous   Login
Location: Le Petit-Vavre
(46.5081°N, 1.5239°E)
Time: 02:29:56
(UTC+00:00)
Language:

MOS 1 - Orbit

View from above orbital plane
View from above orbital plane
View from above satellite
View from above satellite

Ground track
Ground track

The orbit data is extracted from the following two-line orbital elements,

1 17527U 87018A   21137.58656838  .00000334  00000-0  24624-3 0  9990
2 17527  99.1080 187.1098 0007754 309.6170 172.3029 14.02586898749751
Epoch (UTC): 17 May 2021 14:04:39
Eccentricity: 0.0007754
inclination: 99.1080°
perigee height: 879 km
apogee height: 890 km
right ascension of ascending node: 187.1098°
argument of perigee: 309.6170°
revolutions per day: 14.02586898
mean anomaly at epoch: 172.3029°
orbit number at epoch: 74975

The dashed part of the orbit path shows where the satellite is in the earth's shadow,  

DLR